Hourly Weather Roundup
Issued by NWS Central Illinois

Home | Current Version | Previous Version | Text Only | Print | Product List | Glossary On
Versions: 1 2 3 4 5 6 7 8 9 10 11 12 13 14 15 16 17 18 19 20 21 22 23 24 25 26 27 28 29 30 31 32 33 34 35 36 37 38 39 40 41 42 43 44 45 46 47 48 49 50
000
NZUS43 KILX 281610
HWRILX

AREA WEATHER ROUNDUP
NATIONAL WEATHER SERVICE, LINCOLN IL
1100 AM CDT THU JUL 28 2016


CITY           SKY/WX    TMP DP  RH WIND       PRES   REMARKS
BLOOMINGTON    MOSUNNY   80  72  76 SE7       29.93R HX  84
CHAMPAIGN      PTSUNNY   76  68  76 S3        29.92S
DANVILLE       LGT RAIN  73  72  96 CALM      29.89S
DECATUR        MOSUNNY   80  72  76 SE7       29.91S HX  84
EFFINGHAM      HVY RAIN  76  76  98 CALM      29.93S
FLORA          CLOUDY    80  75  82 CALM      29.92S HX  86
GALESBURG      MOSUNNY   81  70  68 NW6       29.91S HX  85
JACKSONVILLE   PTSUNNY   81  74  79 NW7       29.91S HX  85
LACON          CLOUDY    81  73  77 CALM      29.90S HX  85
LAWRENCEVILLE  CLOUDY    80  73  79 CALM      29.91S HX  84
LITCHFIELD       N/A    N/A N/A N/A MISG        N/A
$$


CITY           SKY/WX    TMP DP  RH WIND       PRES   REMARKS
LINCOLN        MOSUNNY   83  77  82 N3        29.90F HX  91
MACOMB         SUNNY     81  72  74 NW7       29.94S HX  84
MATTOON        LGT RAIN  73  68  84 SE6       29.89F
MT CARMEL AP   CLOUDY    77  73  85 SW5       29.91S
OLNEY-NOBLE AP CLOUDY    79  73  83 CALM      29.91F HX  82
PARIS          LGT RAIN  74  73  95 CALM      29.91S
PEORIA         MOSUNNY   83  73  72 E5        29.89F HX  89
PONTIAC        SUNNY     81  74  78 SE6       29.92S HX  87
RANTOUL        NOT AVBL
ROBINSON       PTSUNNY   78  73  84 CALM      29.91F HX  81
SPRINGFIELD    MOSUNNY   84  74  71 CALM      29.91S HX  91
TAYLORVILLE    PTSUNNY   81  75  82 MISG      29.90F HX  86
$$

...REGIONAL REPORTS...


CITY           SKY/WX    TMP DP  RH WIND       PRES   REMARKS
CHICAGO O`HARE PTSUNNY   83  70  64 NE8       29.89F HX  87
KANKAKEE       PTSUNNY   82  71  70 SE5       29.92S HX  86
MOLINE         MOSUNNY   84  69  60 W6        29.90R HX  88
MOUNT STERLING SUNNY     80  70  72 N7        29.92R HX  83
MOUNT VERNON   CLOUDY    82  72  69 MISG      29.90S HX  87
PITTSFIELD     SUNNY     82  73  74 N3        29.93S HX  87
QUINCY         MOSUNNY   81  71  71 NW12      29.92S HX  85
ROCKFORD       MOSUNNY   82  71  69 VRB3      29.91S HX  86
$$


CITY           SKY/WX    TMP DP  RH WIND       PRES   REMARKS
BURLINGTON     MOSUNNY   81  72  74 NW8       29.92S HX  85
CEDAR RAPIDS   CLOUDY    72  67  84 NW12      29.95R
DES MOINES     MOSUNNY   78  66  66 N12G21    29.99R HX  80
KIRKSVILLE     MOSUNNY   84  68  58 N9        29.96R HX  87
OTTUMWA        SUNNY     78  67  68 NW13      29.94R HX  80
ST LOUIS       MOSUNNY   87  73  62 W9        29.91S HX  94
$$


CITY           SKY/WX    TMP DP  RH WIND       PRES   REMARKS
TERRE HAUTE    CLOUDY    81  73  76 W8        29.91S HX  86
EVANSVILLE     CLOUDY    78  73  84 S7        29.92S HX  81
INDIANAPOLIS   PTSUNNY   81  70  69 W7        29.92F HX  84
LAFAYETTE      PTSUNNY   77  72  84 SW3       29.91R
MADISON        PTSUNNY   74  68  81 E8        29.93R
MILWAUKEE      PTSUNNY   76  69  79 N10       29.93S
$$






USA.gov is the U.S. government's official web portal to all federal, state and local government web resources and services.